2022/05/06 23:30:33+0000,-32.89,-46.86,-34.09,-49.99,-53.97,-55.74
2022/05/06 23:31:33+0000,-29.68,-48.57,-33.60,-49.94,-52.33,-55.46
2022/05/06 23:32:25+0000,-32.86,-48.75,-33.68,-48.71,-52.91,-55.52
2022/05/06 23:33:17+0000,-30.27,-46.29,-33.53,-49.59,-52.45,-54.84
2022/05/06 23:34:09+0000,-31.75,-47.42,-33.66,-49.30,-54.02,-55.05
2022/05/06 23:35:01+0000,-31.59,-46.15,-33.69,-48.31,-53.66,-55.63
2022/05/06 23:35:53+0000,-30.84,-46.71,-33.59,-49.11,-51.99,-55.78
2022/05/06 23:36:46+0000,-31.50,-46.18,-33.61,-49.34,-52.67,-55.10
2022/05/06 23:37:38+0000,-32.35,-46.31,-33.69,-48.82,-53.63,-55.13
2022/05/06 23:38:30+0000,-32.64,-46.84,-33.01,-47.99,-53.82,-54.86
2022/05/06 23:39:22+0000,-30.91,-47.35,-33.49,-49.19,-52.79,-55.11
2022/05/06 23:40:14+0000,-29.92,-46.16,-33.10,-48.28,-53.46,-55.08
2022/05/06 23:41:14+0000,-29.33,-46.08,-33.54,-47.38,-53.07,-54.76
2022/05/06 23:42:07+0000,-31.08,-46.87,-32.78,-48.81,-53.21,-55.40
2022/05/06 23:42:59+0000,-31.21,-46.77,-32.99,-48.53,-53.25,-55.07
2022/05/06 23:43:51+0000,-28.54,-46.25,-33.53,-48.76,-52.65,-54.63
2022/05/06 23:44:43+0000,-32.06,-46.13,-32.12,-48.06,-52.74,-54.98
2022/05/06 23:45:35+0000,-29.21,-47.02,-32.39,-49.06,-53.06,-54.69
2022/05/06 23:46:27+0000,-32.27,-46.36,-32.04,-48.13,-53.58,-54.69
2022/05/06 23:47:19+0000,-31.03,-45.91,-33.05,-50.77,-53.24,-54.32
2022/05/06 23:48:11+0000,-29.52,-46.32,-32.98,-48.70,-53.60,-54.88
2022/05/06 23:49:03+0000,-31.34,-46.09,-32.76,-48.61,-53.81,-54.69
2022/05/06 23:49:55+0000,-31.11,-46.21,-32.64,-48.02,-53.56,-54.61
2022/05/06 23:50:47+0000,-32.00,-46.52,-32.70,-48.04,-52.86,-54.98
2022/05/06 23:51:48+0000,-31.04,-45.16,-33.12,-48.50,-53.07,-54.94
2022/05/06 23:52:40+0000,-30.99,-45.45,-32.79,-48.16,-53.71,-54.85
2022/05/06 23:53:32+0000,-32.65,-46.82,-32.99,-48.81,-53.01,-54.48
2022/05/06 23:54:24+0000,-32.49,-46.49,-32.66,-47.84,-52.36,-54.51
2022/05/06 23:55:16+0000,-29.73,-45.66,-32.51,-46.91,-52.43,-55.00
2022/05/06 23:56:08+0000,-32.32,-44.84,-32.91,-48.36,-53.68,-55.09
2022/05/06 23:57:00+0000,-31.09,-46.46,-32.95,-46.98,-53.23,-54.72
2022/05/06 23:57:52+0000,-32.57,-46.20,-33.02,-48.00,-52.81,-54.49
2022/05/06 23:58:44+0000,-31.00,-45.12,-32.62,-47.52,-53.37,-54.73
2022/05/06 23:59:36+0000,-30.77,-45.65,-33.01,-49.11,-53.30,-54.39
2022/05/07 00:00:28+0000,-31.21,-45.44,-32.70,-48.03,-53.30,-54.93
2022/05/07 00:01:33+0000,-31.56,-44.15,-33.33,-50.12,-53.45,-54.96
2022/05/07 00:02:25+0000,-31.35,-43.76,-33.00,-48.07,-52.86,-54.71
2022/05/07 00:03:17+0000,-31.71,-44.54,-32.70,-49.21,-52.16,-54.53
2022/05/07 00:04:09+0000,-29.28,-43.05,-32.74,-48.80,-53.32,-54.54
2022/05/07 00:05:01+0000,-29.73,-44.43,-32.63,-47.72,-52.13,-54.26
2022/05/07 00:05:53+0000,-30.23,-44.96,-33.04,-48.00,-53.02,-54.39
2022/05/07 00:06:45+0000,-31.38,-44.98,-33.06,-48.48,-53.24,-54.97
2022/05/07 00:07:37+0000,-29.61,-44.67,-32.59,-48.41,-52.16,-54.70
2022/05/07 00:08:29+0000,-31.26,-42.96,-32.70,-47.41,-52.35,-54.42
2022/05/07 00:09:21+0000,-30.87,-44.16,-32.87,-47.65,-53.15,-55.32
2022/05/07 00:10:13+0000,-32.20,-43.73,-32.59,-46.83,-52.92,-54.86
2022/05/07 00:11:14+0000,-32.61,-41.77,-32.59,-48.79,-53.48,-55.17
2022/05/07 00:12:06+0000,-30.99,-43.62,-32.81,-47.97,-52.94,-54.71
2022/05/07 00:12:58+0000,-30.42,-43.97,-32.71,-45.99,-53.12,-54.95
2022/05/07 00:13:50+0000,-31.35,-42.31,-32.40,-46.25,-53.30,-55.20
2022/05/07 00:14:42+0000,-29.71,-44.19,-32.49,-47.42,-52.60,-54.58
2022/05/07 00:15:34+0000,-30.30,-42.82,-31.93,-49.50,-53.81,-54.80
2022/05/07 00:16:26+0000,-32.07,-41.98,-32.68,-48.44,-53.92,-54.40
2022/05/07 00:17:18+0000,-32.95,-43.25,-32.33,-50.76,-53.58,-54.19
2022/05/07 00:18:10+0000,-30.01,-43.07,-32.74,-48.47,-54.05,-55.16
2022/05/07 00:19:02+0000,-32.46,-43.97,-32.71,-48.40,-52.52,-54.81
2022/05/07 00:19:54+0000,-31.16,-43.16,-32.46,-47.76,-53.81,-54.72
2022/05/07 00:20:47+0000,-32.64,-43.41,-32.99,-48.03,-53.06,-54.93
2022/05/07 00:21:47+0000,-31.44,-43.70,-32.72,-48.52,-52.67,-54.86
2022/05/07 00:22:39+0000,-32.18,-43.59,-32.77,-49.87,-52.67,-54.31
2022/05/07 00:23:31+0000,-30.96,-43.58,-32.27,-46.32,-53.33,-54.19
2022/05/07 00:24:23+0000,-30.71,-44.65,-32.92,-48.13,-53.37,-54.30
2022/05/07 00:25:15+0000,-32.76,-42.81,-32.54,-48.67,-51.77,-54.83
2022/05/07 00:26:07+0000,-31.97,-43.66,-33.02,-49.03,-52.74,-54.96
2022/05/07 00:26:59+0000,-29.78,-43.54,-32.77,-47.57,-52.81,-53.97
2022/05/07 00:27:51+0000,-30.96,-43.15,-32.69,-48.97,-53.38,-55.11
2022/05/07 00:28:43+0000,-31.97,-43.55,-33.42,-48.17,-52.82,-55.26
2022/05/07 00:29:35+0000,-33.27,-44.26,-33.27,-49.47,-51.07,-54.13
2022/05/07 00:30:27+0000,-30.76,-44.02,-32.66,-47.96,-52.41,-54.25
2022/05/07 00:31:28+0000,-32.53,-45.48,-33.05,-46.45,-53.38,-54.64
2022/05/07 00:32:20+0000,-30.23,-44.84,-32.73,-49.95,-52.18,-54.18
2022/05/07 00:33:12+0000,-31.00,-45.67,-32.29,-48.97,-51.58,-54.52
2022/05/07 00:34:05+0000,-31.30,-46.18,-31.97,-49.74,-53.08,-54.62
2022/05/07 00:34:57+0000,-29.79,-45.13,-32.76,-47.89,-53.60,-54.96
2022/05/07 00:35:49+0000,-31.08,-46.85,-33.45,-50.03,-52.22,-54.69
2022/05/07 00:36:41+0000,-29.99,-46.41,-33.61,-49.12,-53.84,-54.91
2022/05/07 00:37:33+0000,-32.32,-46.41,-33.39,-46.69,-53.80,-54.79
2022/05/07 00:38:25+0000,-32.43,-46.62,-32.96,-47.38,-53.44,-54.72
2022/05/07 00:39:17+0000,-32.78,-45.44,-33.57,-47.82,-50.63,-54.68
2022/05/07 00:40:09+0000,-31.82,-46.49,-33.46,-48.16,-53.01,-55.07
2022/05/07 00:41:09+0000,-30.66,-46.63,-33.48,-48.34,-53.28,-54.37
2022/05/07 00:42:01+0000,-32.35,-46.40,-33.17,-46.47,-53.24,-54.76
2022/05/07 00:42:53+0000,-29.73,-44.88,-33.24,-47.95,-52.67,-55.07
2022/05/07 00:43:45+0000,-32.07,-44.37,-32.96,-46.79,-52.39,-54.90
2022/05/07 00:44:37+0000,-28.57,-46.53,-32.89,-47.57,-52.92,-54.73
2022/05/07 00:45:29+0000,-29.75,-45.04,-33.25,-46.21,-53.26,-54.62
2022/05/07 00:46:21+0000,-31.45,-45.78,-32.89,-47.83,-53.43,-55.02
2022/05/07 00:47:13+0000,-29.55,-45.95,-33.75,-47.74,-53.69,-54.94
2022/05/07 00:48:06+0000,-32.51,-44.29,-33.57,-49.14,-53.10,-55.14
2022/05/07 00:48:58+0000,-30.51,-45.34,-33.41,-48.37,-52.89,-55.03
2022/05/07 00:49:50+0000,-28.99,-44.32,-33.05,-49.78,-52.20,-54.82
2022/05/07 00:50:42+0000,-28.48,-45.41,-32.83,-48.57,-53.74,-54.99
2022/05/07 00:51:42+0000,-31.13,-47.17,-33.48,-49.61,-53.78,-55.06
2022/05/07 00:52:34+0000,-30.04,-47.20,-33.08,-49.92,-52.57,-54.50
2022/05/07 00:53:26+0000,-30.21,-46.64,-33.55,-47.82,-53.89,-54.99
2022/05/07 00:54:18+0000,-32.08,-44.26,-33.55,-48.40,-53.15,-55.00
2022/05/07 00:55:10+0000,-31.67,-43.97,-33.11,-48.39,-53.43,-54.99
2022/05/07 00:56:02+0000,-28.68,-42.85,-32.80,-48.34,-52.96,-55.07
2022/05/07 00:56:54+0000,-31.46,-41.94,-33.51,-47.75,-53.51,-54.74
2022/05/07 00:57:46+0000,-30.21,-43.08,-33.42,-46.68,-53.59,-54.74
2022/05/07 00:58:39+0000,-30.09,-43.82,-33.08,-48.16,-52.41,-55.56
2022/05/07 00:59:31+0000,-31.20,-42.66,-32.82,-47.85,-52.47,-55.28
2022/05/07 01:00:23+0000,-30.59,-44.12,-33.22,-48.20,-53.39,-55.00
2022/05/07 01:01:29+0000,-29.99,-42.96,-32.76,-47.48,-53.56,-55.01
2022/05/07 01:02:21+0000,-31.66,-44.53,-33.25,-47.68,-53.15,-55.58
2022/05/07 01:03:13+0000,-30.52,-43.10,-32.75,-48.81,-53.24,-55.09
2022/05/07 01:04:05+0000,-29.02,-43.52,-33.39,-49.05,-52.90,-54.90
2022/05/07 01:04:57+0000,-29.93,-42.15,-32.91,-49.20,-52.84,-54.95
2022/05/07 01:05:49+0000,-31.30,-43.56,-33.13,-50.36,-53.63,-55.41
2022/05/07 01:06:41+0000,-30.06,-42.78,-33.07,-48.85,-54.02,-54.87
2022/05/07 01:07:33+0000,-31.31,-42.17,-33.73,-49.03,-52.06,-55.56
2022/05/07 01:08:25+0000,-31.31,-43.47,-33.41,-46.65,-53.33,-54.98
2022/05/07 01:09:17+0000,-29.85,-44.45,-32.77,-48.14,-54.23,-55.54
2022/05/07 01:10:09+0000,-33.41,-43.86,-33.16,-49.28,-53.82,-54.78
2022/05/07 01:11:08+0000,-30.31,-43.10,-33.59,-47.98,-53.39,-55.24
2022/05/07 01:12:00+0000,-31.95,-44.14,-33.16,-47.25,-53.48,-54.83
2022/05/07 01:12:52+0000,-30.31,-43.68,-33.03,-48.29,-53.68,-55.38
2022/05/07 01:13:44+0000,-32.28,-42.00,-32.87,-48.51,-53.38,-54.94
2022/05/07 01:14:36+0000,-31.09,-43.29,-32.68,-48.91,-53.11,-54.82
2022/05/07 01:15:28+0000,-31.14,-43.04,-33.05,-47.53,-52.49,-55.50
2022/05/07 01:16:20+0000,-32.45,-46.25,-31.94,-49.08,-53.18,-55.03
2022/05/07 01:17:12+0000,-32.54,-47.61,-32.56,-49.28,-53.30,-55.48
2022/05/07 01:18:04+0000,-28.35,-46.49,-32.64,-49.32,-53.35,-55.16
2022/05/07 01:18:56+0000,-31.96,-45.98,-33.02,-46.31,-53.94,-55.01
2022/05/07 01:19:48+0000,-30.65,-45.93,-32.85,-49.09,-53.20,-55.25
2022/05/07 01:20:40+0000,-31.98,-44.28,-32.86,-48.32,-53.15,-55.35
2022/05/07 01:21:44+0000,-30.77,-42.63,-32.01,-48.45,-53.35,-55.04
2022/05/07 01:22:36+0000,-31.55,-44.59,-32.58,-47.41,-52.50,-55.12
2022/05/07 01:23:28+0000,-31.65,-42.61,-32.65,-48.33,-51.64,-55.41
2022/05/07 01:24:20+0000,-31.36,-43.29,-32.54,-49.61,-52.94,-55.16
2022/05/07 01:25:12+0000,-32.04,-43.39,-32.49,-48.60,-53.70,-54.64
2022/05/07 01:26:04+0000,-31.35,-43.54,-33.08,-49.65,-52.26,-54.98
2022/05/07 01:26:56+0000,-31.85,-42.13,-33.24,-46.20,-54.04,-54.70
2022/05/07 01:27:48+0000,-30.74,-43.26,-33.22,-48.51,-53.68,-55.52
2022/05/07 01:28:40+0000,-30.61,-44.46,-33.17,-48.25,-54.32,-55.03
2022/05/07 01:29:32+0000,-31.43,-43.76,-32.93,-45.90,-53.03,-54.76
2022/05/07 01:30:24+0000,-31.86,-44.31,-32.84,-44.46,-53.73,-55.37
2022/05/07 01:31:25+0000,-30.83,-43.41,-32.94,-46.14,-53.69,-55.25
2022/05/07 01:32:17+0000,-30.64,-43.49,-32.71,-48.74,-53.21,-54.66
2022/05/07 01:33:09+0000,-30.08,-43.13,-33.26,-48.61,-52.93,-54.68
2022/05/07 01:34:01+0000,-29.74,-43.02,-33.25,-47.46,-52.76,-55.19
2022/05/07 01:34:53+0000,-33.41,-44.19,-33.04,-45.51,-53.10,-54.96
2022/05/07 01:35:45+0000,-29.29,-44.26,-33.00,-48.41,-53.08,-55.38
2022/05/07 01:36:37+0000,-30.08,-44.27,-33.11,-48.01,-53.07,-54.69
2022/05/07 01:37:29+0000,-31.29,-43.94,-33.17,-47.23,-53.85,-55.38
2022/05/07 01:38:21+0000,-30.56,-43.41,-33.10,-47.85,-53.27,-54.91
2022/05/07 01:39:13+0000,-31.69,-42.72,-33.12,-49.00,-53.45,-55.30
2022/05/07 01:40:06+0000,-32.16,-43.97,-33.86,-48.53,-52.83,-55.18
2022/05/07 01:41:10+0000,-30.85,-44.01,-32.98,-47.40,-52.56,-55.51
2022/05/07 01:42:02+0000,-30.73,-44.45,-33.17,-47.98,-52.24,-55.04
2022/05/07 01:42:54+0000,-32.16,-43.73,-32.84,-46.76,-53.50,-54.50
2022/05/07 01:43:46+0000,-31.67,-45.09,-33.05,-48.16,-53.64,-54.67
2022/05/07 01:44:38+0000,-30.26,-42.73,-33.01,-49.38,-53.27,-55.71
2022/05/07 01:45:30+0000,-31.00,-44.38,-32.67,-46.69,-52.77,-55.10
2022/05/07 01:46:22+0000,-30.49,-42.69,-33.01,-46.19,-53.74,-55.09
2022/05/07 01:47:14+0000,-31.47,-42.26,-33.13,-46.74,-53.76,-55.01
2022/05/07 01:48:06+0000,-33.17,-44.27,-33.21,-50.06,-52.83,-54.77
2022/05/07 01:48:58+0000,-31.75,-43.87,-33.26,-47.17,-53.67,-55.24
2022/05/07 01:49:50+0000,-31.28,-45.19,-33.26,-49.34,-53.74,-54.81
2022/05/07 01:50:42+0000,-32.62,-43.91,-32.95,-48.68,-53.39,-54.30
2022/05/07 01:51:40+0000,-30.46,-42.54,-33.69,-47.33,-53.48,-54.82
2022/05/07 01:52:32+0000,-32.14,-42.54,-33.11,-45.89,-53.46,-55.11
2022/05/07 01:53:25+0000,-30.76,-41.01,-33.31,-45.65,-53.65,-54.20
2022/05/07 01:54:17+0000,-30.13,-42.04,-33.23,-47.42,-53.62,-54.96
2022/05/07 01:55:09+0000,-31.47,-42.64,-33.89,-47.89,-53.30,-54.32
2022/05/07 01:56:01+0000,-32.84,-46.50,-33.49,-43.16,-53.64,-54.19
2022/05/07 01:56:53+0000,-30.33,-46.02,-33.50,-45.25,-52.97,-53.63
2022/05/07 01:57:45+0000,-31.04,-45.44,-33.66,-48.56,-54.09,-54.27
2022/05/07 01:58:37+0000,-31.16,-45.15,-33.53,-48.75,-52.66,-54.45
2022/05/07 01:59:29+0000,-29.13,-43.75,-33.76,-47.47,-52.53,-54.24
2022/05/07 02:00:21+0000,-32.82,-44.42,-33.36,-48.86,-50.25,-52.63
2022/05/07 02:01:26+0000,-33.65,-41.45,-33.64,-43.86,-49.88,-52.50
2022/05/07 02:02:18+0000,-31.81,-42.03,-33.34,-48.78,-50.37,-52.79
2022/05/07 02:03:10+0000,-33.24,-42.16,-33.15,-48.23,-50.77,-53.16
2022/05/07 02:04:02+0000,-32.33,-42.10,-33.33,-44.26,-50.60,-53.24
2022/05/07 02:04:54+0000,-31.54,-44.50,-33.58,-43.58,-51.15,-52.09
2022/05/07 02:05:46+0000,-30.75,-46.87,-33.60,-47.14,-50.95,-52.91
2022/05/07 02:06:38+0000,-37.06,-42.83,-33.78,-47.23,-50.59,-53.12
2022/05/07 02:07:30+0000,-36.42,-42.90,-33.89,-43.53,-50.24,-53.40
2022/05/07 02:08:22+0000,-37.51,-42.03,-33.63,-45.05,-51.42,-53.17
2022/05/07 02:09:14+0000,-37.08,-41.21,-33.23,-47.83,-50.84,-52.83
2022/05/07 02:10:06+0000,-37.19,-42.26,-33.31,-48.38,-50.25,-52.21
2022/05/07 02:11:07+0000,-36.55,-41.85,-33.90,-48.01,-50.66,-53.17
2022/05/07 02:11:59+0000,-36.90,-44.33,-33.53,-44.95,-50.83,-52.94
2022/05/07 02:12:51+0000,-36.52,-42.93,-33.76,-44.86,-51.07,-52.87
2022/05/07 02:13:43+0000,-37.39,-43.93,-33.13,-47.77,-51.14,-52.73
2022/05/07 02:14:35+0000,-35.04,-41.80,-33.69,-49.58,-51.50,-52.83
2022/05/07 02:15:27+0000,-37.14,-40.89,-33.58,-43.58,-50.01,-52.94
2022/05/07 02:16:19+0000,-36.70,-42.32,-33.53,-49.52,-51.20,-52.90
2022/05/07 02:17:11+0000,-36.01,-41.78,-34.03,-47.50,-51.06,-53.34
2022/05/07 02:18:03+0000,-37.15,-41.32,-33.66,-48.15,-50.75,-53.01
2022/05/07 02:18:55+0000,-35.88,-40.56,-33.66,-45.36,-51.20,-52.33
2022/05/07 02:19:47+0000,-34.65,-43.17,-33.71,-46.53,-51.24,-52.50
2022/05/07 02:20:39+0000,-36.39,-43.32,-33.77,-46.00,-50.27,-53.10
2022/05/07 02:21:37+0000,-35.79,-44.62,-33.45,-48.17,-49.46,-52.88
2022/05/07 02:22:29+0000,-34.33,-43.85,-33.07,-43.83,-50.90,-52.84
2022/05/07 02:23:21+0000,-34.86,-44.54,-33.98,-46.13,-50.87,-52.58
2022/05/07 02:24:13+0000,-36.33,-43.33,-33.43,-46.73,-50.76,-52.84
2022/05/07 02:25:05+0000,-35.01,-43.24,-33.28,-48.55,-50.49,-52.66
2022/05/07 02:25:58+0000,-36.42,-44.98,-33.52,-45.55,-50.23,-52.93
2022/05/07 02:26:50+0000,-35.78,-43.68,-32.77,-48.49,-50.45,-53.28
2022/05/07 02:27:42+0000,-35.32,-43.65,-33.59,-45.49,-50.16,-53.25
2022/05/07 02:28:34+0000,-34.67,-41.85,-33.55,-48.58,-50.22,-52.71
2022/05/07 02:29:26+0000,-36.07,-41.45,-33.16,-45.95,-50.11,-52.53
2022/05/07 02:30:18+0000,-36.37,-41.36,-33.34,-48.04,-50.84,-53.03
2022/05/07 02:31:16+0000,-36.37,-42.52,-33.46,-44.94,-50.68,-52.84
2022/05/07 02:32:08+0000,-37.25,-42.10,-32.46,-47.52,-50.38,-52.27
2022/05/07 02:33:00+0000,-36.81,-43.38,-33.36,-44.12,-50.31,-53.57
2022/05/07 02:33:52+0000,-36.71,-42.75,-33.37,-45.69,-50.86,-52.82
2022/05/07 02:34:44+0000,-36.65,-42.13,-33.55,-45.42,-50.61,-53.15
2022/05/07 02:35:36+0000,-36.90,-43.38,-33.83,-47.19,-50.23,-53.47
2022/05/07 02:36:28+0000,-35.72,-42.46,-33.18,-41.73,-50.41,-52.17
2022/05/07 02:37:20+0000,-36.12,-43.36,-33.82,-46.76,-50.33,-52.50
2022/05/07 02:38:13+0000,-36.14,-43.93,-34.00,-47.94,-51.05,-53.42
2022/05/07 02:39:05+0000,-36.48,-43.49,-33.71,-49.58,-51.37,-53.17
2022/05/07 02:39:57+0000,-36.53,-43.51,-33.11,-42.49,-49.99,-53.21
2022/05/07 02:40:49+0000,-37.68,-41.43,-33.30,-50.54,-49.87,-53.30
2022/05/07 02:41:47+0000,-36.69,-43.05,-33.13,-45.58,-50.01,-53.22
2022/05/07 02:42:39+0000,-37.78,-42.17,-33.73,-45.77,-49.53,-53.43
2022/05/07 02:43:31+0000,-37.08,-41.70,-33.56,-45.22,-49.84,-53.49
2022/05/07 02:44:23+0000,-35.84,-42.15,-33.41,-46.05,-49.94,-53.46
2022/05/07 02:45:16+0000,-35.47,-40.58,-33.30,-45.04,-50.16,-52.93
2022/05/07 02:46:08+0000,-35.11,-42.36,-34.04,-44.37,-51.16,-52.77
2022/05/07 02:47:00+0000,-35.20,-40.47,-33.53,-44.14,-50.74,-52.69
2022/05/07 02:47:52+0000,-37.48,-41.71,-33.31,-45.32,-50.54,-53.41
2022/05/07 02:48:44+0000,-35.48,-42.58,-33.53,-45.42,-50.28,-52.82
2022/05/07 02:49:36+0000,-36.22,-42.89,-32.85,-48.19,-50.35,-53.47
2022/05/07 02:50:28+0000,-36.37,-42.54,-32.90,-46.04,-50.85,-52.89
2022/05/07 02:51:33+0000,-36.35,-42.72,-33.80,-44.48,-50.52,-53.60
2022/05/07 02:52:25+0000,-35.58,-42.22,-33.53,-45.16,-50.57,-53.26
2022/05/07 02:53:17+0000,-36.44,-41.34,-32.64,-46.02,-50.48,-52.65
2022/05/07 02:54:09+0000,-35.76,-41.49,-33.12,-47.16,-51.50,-53.38
2022/05/07 02:55:01+0000,-35.47,-41.70,-33.40,-44.25,-51.00,-53.32
2022/05/07 02:55:53+0000,-36.22,-42.29,-33.14,-46.25,-51.16,-53.20
2022/05/07 02:56:45+0000,-35.24,-41.97,-33.02,-46.90,-50.21,-52.97
2022/05/07 02:57:37+0000,-36.10,-43.86,-32.89,-48.26,-50.16,-53.53
2022/05/07 02:58:29+0000,-35.78,-44.31,-33.30,-44.92,-50.31,-52.84
2022/05/07 02:59:21+0000,-36.41,-41.92,-33.17,-44.09,-50.96,-53.25
2022/05/07 03:00:13+0000,-35.86,-42.67,-33.21,-46.55,-50.34,-53.25
2022/05/07 03:01:15+0000,-34.67,-40.96,-33.05,-45.95,-50.77,-52.78
2022/05/07 03:02:07+0000,-34.61,-42.46,-33.03,-46.92,-50.59,-52.35
2022/05/07 03:02:59+0000,-36.24,-41.62,-33.29,-45.10,-50.87,-53.10
2022/05/07 03:03:51+0000,-35.11,-43.60,-32.94,-44.67,-50.49,-53.19
2022/05/07 03:04:43+0000,-35.55,-43.28,-33.71,-45.71,-50.15,-54.00
2022/05/07 03:05:35+0000,-35.67,-43.21,-32.99,-45.84,-50.58,-53.29
2022/05/07 03:06:27+0000,-36.19,-40.75,-33.30,-47.24,-49.74,-53.19
2022/05/07 03:07:19+0000,-36.53,-43.02,-32.82,-48.78,-50.28,-52.83
2022/05/07 03:08:11+0000,-34.97,-42.26,-33.12,-46.10,-50.62,-52.54
2022/05/07 03:09:03+0000,-35.53,-42.87,-32.69,-48.51,-50.62,-53.37
2022/05/07 03:09:55+0000,-35.11,-41.22,-33.01,-46.81,-50.84,-53.82
2022/05/07 03:10:47+0000,-36.29,-42.11,-32.89,-48.62,-50.64,-53.16
2022/05/07 03:11:48+0000,-35.25,-41.92,-33.11,-49.91,-50.03,-53.46
2022/05/07 03:12:40+0000,-35.76,-41.65,-32.83,-45.37,-51.24,-52.82
2022/05/07 03:13:32+0000,-35.85,-41.56,-33.31,-45.55,-49.75,-53.08
2022/05/07 03:14:24+0000,-36.29,-40.70,-33.11,-46.89,-49.90,-52.99
2022/05/07 03:15:16+0000,-35.71,-40.41,-33.20,-44.70,-49.18,-53.25
2022/05/07 03:16:08+0000,-36.19,-40.77,-33.03,-45.64,-49.24,-53.08
2022/05/07 03:17:00+0000,-35.87,-41.60,-32.52,-44.92,-50.23,-53.01
2022/05/07 03:17:52+0000,-36.57,-41.65,-33.02,-47.21,-48.95,-53.30
2022/05/07 03:18:44+0000,-35.52,-40.34,-32.81,-44.73,-50.12,-53.72
2022/05/07 03:19:36+0000,-36.43,-42.39,-32.97,-47.27,-50.42,-53.18
2022/05/07 03:20:28+0000,-35.73,-39.28,-33.04,-45.82,-50.51,-53.74
2022/05/07 03:21:28+0000,-36.27,-41.26,-33.57,-46.33,-49.76,-53.05
2022/05/07 03:22:20+0000,-35.01,-41.09,-32.93,-46.97,-50.28,-52.99
2022/05/07 03:23:12+0000,-35.68,-40.90,-33.72,-47.35,-49.87,-53.05
2022/05/07 03:24:04+0000,-36.13,-40.63,-33.46,-48.03,-49.97,-53.12
2022/05/07 03:24:56+0000,-36.30,-40.89,-33.72,-46.39,-49.43,-53.21
2022/05/07 03:25:48+0000,-36.14,-40.68,-32.75,-49.36,-49.73,-53.26
2022/05/07 03:26:40+0000,-33.87,-40.65,-33.17,-47.92,-50.33,-52.78
2022/05/07 03:27:32+0000,-35.95,-41.96,-34.12,-48.75,-50.52,-52.88
2022/05/07 03:28:24+0000,-35.41,-40.08,-32.97,-44.82,-50.38,-53.04
2022/05/07 03:29:16+0000,-35.13,-41.60,-33.56,-44.63,-48.81,-53.00
2022/05/07 03:30:09+0000,-35.20,-40.58,-33.47,-46.37,-49.89,-53.23
2022/05/07 03:31:09+0000,-35.13,-42.45,-33.05,-45.68,-50.29,-53.13
2022/05/07 03:32:01+0000,-33.66,-41.98,-33.57,-45.02,-48.69,-53.85
2022/05/07 03:32:53+0000,-35.68,-41.43,-32.77,-45.45,-50.38,-52.98
2022/05/07 03:33:45+0000,-35.49,-42.46,-33.42,-45.84,-50.32,-52.95
2022/05/07 03:34:37+0000,-34.04,-41.27,-33.56,-45.96,-49.41,-52.86
2022/05/07 03:35:29+0000,-35.06,-40.75,-33.63,-46.15,-49.24,-53.19
2022/05/07 03:36:21+0000,-35.85,-42.93,-33.14,-45.45,-50.10,-53.22
2022/05/07 03:37:13+0000,-35.05,-41.62,-33.16,-45.73,-50.15,-52.98
2022/05/07 03:38:05+0000,-34.62,-43.24,-33.41,-45.45,-49.25,-52.97
2022/05/07 03:38:57+0000,-27.84,-41.03,-33.70,-43.96,-50.51,-52.98
2022/05/07 03:39:49+0000,-27.24,-41.63,-33.31,-49.28,-50.31,-53.01
2022/05/07 03:40:41+0000,-30.26,-39.30,-33.34,-46.03,-49.97,-52.76
2022/05/07 03:41:42+0000,-29.83,-40.44,-33.68,-44.20,-50.40,-53.41
2022/05/07 03:42:34+0000,-30.14,-42.00,-32.95,-48.78,-49.62,-52.77
2022/05/07 03:43:26+0000,-27.63,-40.21,-32.43,-41.30,-50.93,-52.70
2022/05/07 03:44:18+0000,-29.10,-41.83,-33.12,-48.67,-50.46,-52.46
2022/05/07 03:45:10+0000,-27.74,-42.07,-33.35,-46.31,-50.94,-52.64
2022/05/07 03:46:02+0000,-29.72,-41.67,-32.94,-43.53,-50.93,-53.18
2022/05/07 03:46:54+0000,-27.55,-41.58,-33.09,-44.77,-50.76,-52.85
2022/05/07 03:47:46+0000,-28.76,-40.77,-33.14,-46.31,-50.38,-53.10
2022/05/07 03:48:38+0000,-28.74,-42.29,-33.26,-45.19,-50.18,-53.36
2022/05/07 03:49:30+0000,-29.00,-43.65,-33.67,-44.42,-51.10,-53.06
2022/05/07 03:50:23+0000,-29.53,-42.85,-32.94,-43.80,-50.68,-53.40
2022/05/07 03:51:23+0000,-26.97,-43.23,-33.46,-45.56,-51.05,-53.20
2022/05/07 03:52:15+0000,-27.86,-39.52,-33.19,-46.78,-50.72,-52.76
2022/05/07 03:53:07+0000,-28.47,-41.71,-33.34,-43.63,-50.14,-52.96
2022/05/07 03:53:59+0000,-28.25,-42.09,-32.89,-44.64,-50.15,-53.80
2022/05/07 03:54:51+0000,-27.70,-43.05,-33.27,-45.56,-50.89,-53.02
2022/05/07 03:55:43+0000,-28.89,-43.56,-33.47,-46.04,-50.38,-52.79
2022/05/07 03:56:35+0000,-28.11,-42.86,-33.37,-46.40,-50.34,-53.33
2022/05/07 03:57:28+0000,-27.50,-43.01,-33.08,-43.96,-50.55,-53.55
2022/05/07 03:58:20+0000,-27.86,-43.70,-33.03,-49.31,-50.26,-52.83
2022/05/07 03:59:12+0000,-26.91,-41.57,-32.98,-47.12,-50.98,-53.38
2022/05/07 04:00:04+0000,-29.12,-41.76,-33.27,-49.25,-50.62,-53.08
2022/05/07 04:01:05+0000,-28.79,-43.60,-32.80,-46.33,-50.64,-52.69
2022/05/07 04:01:57+0000,-29.15,-42.30,-33.75,-46.85,-50.22,-53.56
2022/05/07 04:02:49+0000,-29.51,-41.89,-33.38,-48.27,-51.12,-53.41
2022/05/07 04:03:41+0000,-28.45,-41.29,-33.47,-45.32,-51.22,-52.50
2022/05/07 04:04:33+0000,-28.19,-41.99,-33.14,-48.81,-50.92,-52.88
2022/05/07 04:05:25+0000,-24.56,-40.51,-32.81,-46.74,-51.03,-53.01
2022/05/07 04:06:17+0000,-27.44,-41.42,-32.72,-47.35,-50.82,-53.02
2022/05/07 04:07:09+0000,-28.39,-41.51,-32.79,-46.34,-50.73,-53.12
2022/05/07 04:08:01+0000,-27.39,-41.56,-33.28,-45.32,-51.33,-52.87
2022/05/07 04:08:53+0000,-28.46,-41.49,-32.95,-45.28,-51.12,-53.05
2022/05/07 04:09:45+0000,-28.74,-41.19,-33.14,-45.16,-51.49,-52.73
2022/05/07 04:10:37+0000,-29.65,-40.52,-33.29,-46.09,-50.64,-53.50
2022/05/07 04:11:38+0000,-29.24,-41.18,-33.30,-45.50,-51.25,-53.09
2022/05/07 04:12:30+0000,-28.49,-41.23,-32.81,-46.91,-51.31,-52.55
2022/05/07 04:13:22+0000,-29.92,-42.59,-33.10,-46.16,-51.45,-52.99
2022/05/07 04:14:14+0000,-25.51,-41.10,-33.12,-47.12,-51.41,-52.79
2022/05/07 04:15:06+0000,-28.60,-43.34,-33.41,-46.43,-51.32,-52.85
2022/05/07 04:15:58+0000,-27.33,-41.71,-33.42,-46.11,-51.24,-52.66
2022/05/07 04:16:50+0000,-26.14,-41.76,-33.36,-47.27,-51.05,-52.85
2022/05/07 04:17:42+0000,-28.98,-41.86,-33.20,-47.52,-51.13,-52.59
2022/05/07 04:18:34+0000,-29.49,-40.01,-33.40,-48.48,-51.19,-52.59
2022/05/07 04:19:26+0000,-27.14,-40.11,-32.78,-46.83,-50.86,-53.09
2022/05/07 04:20:18+0000,-27.22,-41.30,-32.35,-48.18,-51.33,-53.49
2022/05/07 04:21:18+0000,-28.30,-43.40,-32.77,-48.95,-51.15,-52.90
2022/05/07 04:22:10+0000,-28.50,-41.57,-33.16,-46.45,-51.58,-52.97
2022/05/07 04:23:02+0000,-28.28,-42.81,-33.34,-46.19,-51.49,-52.98
2022/05/07 04:23:54+0000,-30.18,-42.87,-32.20,-45.35,-51.04,-53.13
2022/05/07 04:24:46+0000,-26.20,-41.33,-32.50,-45.54,-51.25,-52.83
2022/05/07 04:25:38+0000,-29.28,-43.26,-33.34,-45.79,-51.37,-53.34
2022/05/07 04:26:30+0000,-27.05,-40.64,-33.14,-44.73,-50.94,-52.80
2022/05/07 04:27:22+0000,-27.30,-45.27,-32.64,-44.57,-51.18,-52.25
2022/05/07 04:28:14+0000,-28.56,-42.72,-32.87,-45.60,-51.42,-52.82
2022/05/07 04:29:06+0000,-29.51,-44.67,-33.20,-46.18,-51.07,-52.55
2022/05/07 04:29:59+0000,-29.60,-40.95,-33.74,-43.79,-50.54,-52.49
2022/05/07 04:30:51+0000,-28.28,-43.75,-32.61,-45.69,-51.05,-53.45
2022/05/07 04:31:51+0000,-28.52,-42.71,-32.75,-45.30,-51.76,-52.67
2022/05/07 04:32:43+0000,-28.96,-42.38,-33.52,-45.79,-50.73,-53.65
2022/05/07 04:33:35+0000,-27.32,-42.61,-32.93,-48.61,-51.01,-53.03
2022/05/07 04:34:27+0000,-28.47,-41.92,-32.76,-46.00,-51.24,-52.58
2022/05/07 04:35:19+0000,-27.73,-43.77,-32.98,-49.08,-51.52,-53.18
2022/05/07 04:36:11+0000,-29.29,-41.22,-33.74,-45.94,-51.61,-52.63
2022/05/07 04:37:03+0000,-26.01,-43.34,-33.25,-48.78,-51.05,-53.25
2022/05/07 04:37:55+0000,-29.12,-42.94,-32.34,-45.11,-50.54,-53.47
2022/05/07 04:38:47+0000,-27.58,-40.64,-33.21,-46.91,-50.65,-53.64
2022/05/07 04:39:39+0000,-27.04,-40.74,-33.04,-46.02,-50.89,-53.09
2022/05/07 04:40:32+0000,-27.18,-41.26,-33.05,-46.13,-51.04,-52.64
2022/05/07 04:41:32+0000,-28.24,-43.16,-33.65,-46.28,-51.58,-53.56
2022/05/07 04:42:24+0000,-28.23,-42.94,-32.67,-46.14,-51.57,-53.11
2022/05/07 04:43:16+0000,-27.70,-40.95,-33.05,-45.35,-50.85,-52.24
2022/05/07 04:44:08+0000,-27.45,-41.32,-32.67,-45.37,-50.97,-52.88
2022/05/07 04:45:00+0000,-25.89,-41.27,-32.53,-46.94,-51.66,-53.23